Weather History for Needles, CA

Change the Weather History Date:

Tuesday, February 12, 2013

  Actual Average Record
Temperature  
Mean Temperature 52 °F -  
Max Temperature 62 °F 70 °F 83 °F (1971)
Min Temperature 42 °F 45 °F 30 °F (1965)
Degree Days  
Heating Degree Days 13    
Growing Degree Days 2 (Base 50)    
Moisture  
Dew Point 12 °F    
Average Humidity 22    
Maximum Humidity 32    
Minimum Humidity 12    
Precipitation  
Precipitation 0.00 in - - ()
Sea Level Pressure  
Sea Level Pressure 30.25 in    
Wind  
Wind Speed 10 mph (North)    
Max Wind Speed 22 mph    
Max Gust Speed 28 mph    
Visibility 10 miles    
Events      
Averages and records for this station are not official NWS values.
T = Trace of Precipitation, MM = Missing Value Source: NWS Daily Summary

Daily Weather History Graph

Daily Weather History Graph

Search for Another Location

Airport:

Trip Planner

Search our weather history database for the weather conditions in past years. The results will help you decide how hot, cold, wet, or windy it might be!

Date:

Astronomy

Feb. 12, 2013 Rise Set
Actual Time 6:26 AM PST 5:18 PM PST
Civil Twilight 6:00 AM PST 5:44 PM PST
Nautical Twilight 5:31 AM PST 6:14 PM PST
Astronomical Twilight 5:01 AM PST 6:44 PM PST
Moon 7:35 AM PST (2/12) 8:13 PM PST (2/12)
Length of Visible Light 11h 43m
Length of Day
10h 52m
Waxing Crescent, 8% of the Moon is Illuminated
Feb 12
Waxing Crescent
Feb 17
First Quarter
Feb 25
Full
Mar 4
Last Quarter
Mar 11
New

Hourly Weather History & Observations

Time (PST) Temp. Windchill Dew Point Humidity Pressure Visibility Wind Dir Wind Speed Gust Speed Precip Events Conditions
1:56 AM 45.0 °F 39.7 °F 15.1 °F 30% 30.21 in 10.0 mi NNW 10.4 mph - N/A   Clear
2:56 AM 45.0 °F 40.1 °F 15.1 °F 30% 30.22 in 10.0 mi North 9.2 mph - N/A   Clear
3:56 AM 44.1 °F 39.5 °F 16.0 °F 32% 30.23 in 10.0 mi NNW 8.1 mph - N/A   Clear
4:56 AM 43.0 °F 36.8 °F 15.1 °F 32% 30.26 in 10.0 mi NNW 11.5 mph - N/A   Clear
5:56 AM 43.0 °F 38.8 °F 14.0 °F 31% 30.27 in 10.0 mi North 6.9 mph - N/A   Clear
6:56 AM 42.1 °F 38.4 °F 14.0 °F 32% 30.30 in 10.0 mi West 5.8 mph - N/A   Clear
7:56 AM 46.9 °F - 12.9 °F 25% 30.32 in 10.0 mi NNE 5.8 mph - N/A   Clear
8:56 AM 50.0 °F - 14.0 °F 24% 30.33 in 10.0 mi North 11.5 mph - N/A   Clear
9:56 AM 53.1 °F - 10.0 °F 18% 30.33 in 10.0 mi NNE 19.6 mph - N/A   Clear
10:56 AM 55.9 °F - 9.0 °F 15% 30.31 in 10.0 mi NNE 21.9 mph 27.6 mph N/A   Clear
11:56 AM 57.9 °F - 8.1 °F 14% 30.28 in 10.0 mi NNE 16.1 mph 25.3 mph N/A   Clear
12:56 PM 59.0 °F - 8.1 °F 13% 30.25 in 10.0 mi NNE 15.0 mph 19.6 mph N/A   Clear
1:56 PM 60.1 °F - 8.1 °F 13% 30.22 in 10.0 mi North 8.1 mph - N/A   Clear
2:56 PM 62.1 °F - 8.1 °F 12% 30.21 in 10.0 mi NNE 10.4 mph - N/A   Clear
3:56 PM 61.0 °F - 10.9 °F 14% 30.20 in 10.0 mi NNE 12.7 mph - N/A   Clear
4:56 PM 59.0 °F - 10.9 °F 15% 30.21 in 10.0 mi NNE 10.4 mph - N/A   Clear
5:56 PM 55.9 °F - 12.0 °F 18% 30.22 in 10.0 mi NNE 10.4 mph - N/A   Clear
6:56 PM 55.0 °F - 12.0 °F 18% 30.23 in 10.0 mi North 10.4 mph - N/A   Clear
7:56 PM 52.0 °F - 12.9 °F 21% 30.22 in 10.0 mi WNW 8.1 mph - N/A   Clear
8:56 PM 50.0 °F - 14.0 °F 24% 30.22 in 10.0 mi WNW 8.1 mph - N/A   Clear
9:56 PM 48.0 °F - 14.0 °F 26% 30.23 in 10.0 mi WNW 5.8 mph - N/A   Clear
10:56 PM 45.0 °F 43.5 °F 16.0 °F 31% 30.23 in 10.0 mi NW 3.5 mph - N/A   Clear
11:56 PM 46.0 °F 43.9 °F 15.1 °F 29% 30.23 in 10.0 mi West 4.6 mph - N/A   Clear